• In Germany
  • List of Countries
  • For 7 days
  • Water Temperature
  • Satellite Maps
  • Weather Map
  • Weather Widgets
  • user-avatar
    Login

    Hourly Weather Brest

    Today, 26 June, Monday

    Time Temperature Precipitation Wind Pressure Humidity
    00:00 +19°C° 0.2 mm 1 mps 744 mmHg 86%
    01:00 +18°C° 0.2 mm 2 mps 744 mmHg 86%
    02:00 +18°C° 0 mm 2 mps 744 mmHg 87%
    03:00 +18°C° 0 mm 2 mps 744 mmHg 90%
    04:00 +17°C° 0 mm 2 mps 744 mmHg 93%
    05:00 +17°C° 0 mm 2 mps 744 mmHg 96%
    06:00 +18°C° 0 mm 2 mps 744 mmHg 90%
    07:00 +19°C° 0 mm 3 mps 744 mmHg 84%
    08:00 +20°C° 0 mm 3 mps 744 mmHg 76%
    09:00 +22°C° 0.1 mm 3 mps 744 mmHg 70%
    10:00 +23°C° 0.1 mm 4 mps 744 mmHg 63%
    11:00 +25°C° 0.1 mm 4 mps 744 mmHg 57%
    12:00 +23°C° 0.1 mm 4 mps 744 mmHg 59%
    13:00 +23°C° 0.1 mm 4 mps 744 mmHg 61%
    14:00 +24°C° 0.1 mm 3 mps 744 mmHg 63%
    15:00 +22°C° 0.1 mm 4 mps 744 mmHg 64%
    16:00 +22°C° 0.1 mm 4 mps 744 mmHg 65%
    17:00 +22°C° 0.1 mm 4 mps 744 mmHg 66%
    18:00 +21°C° 0.1 mm 3 mps 744 mmHg 71%
    19:00 +20°C° 0.1 mm 3 mps 744 mmHg 75%
    20:00 +19°C° 0.1 mm 2 mps 744 mmHg 80%
    21:00 +18°C° 0.1 mm 2 mps 745 mmHg 84%
    22:00 +17°C° 0.1 mm 2 mps 745 mmHg 89%
    23:00 +16°C° 0.1 mm 2 mps 745 mmHg 93%

    Tomorrow, 27 June, Tuesday

    Time Temperature Precipitation Wind Pressure Humidity
    00:00 +15°C° 0 mm 2 mps 746 mmHg 94%
    01:00 +14°C° 0 mm 2 mps 746 mmHg 95%
    02:00 +13°C° 0 mm 2 mps 746 mmHg 96%
    03:00 +13°C° 0 mm 2 mps 747 mmHg 96%
    04:00 +13°C° 0 mm 2 mps 747 mmHg 96%
    05:00 +12°C° 0 mm 2 mps 747 mmHg 95%
    06:00 +14°C° 0 mm 2 mps 747 mmHg 86%
    07:00 +16°C° 0 mm 2 mps 747 mmHg 77%
    08:00 +18°C° 0 mm 2 mps 748 mmHg 68%
    09:00 +20°C° 0 mm 2 mps 748 mmHg 60%
    10:00 +21°C° 0 mm 2 mps 748 mmHg 52%
    11:00 +24°C° 0 mm 3 mps 748 mmHg 44%
    12:00 +24°C° 0 mm 3 mps 748 mmHg 42%
    13:00 +25°C° 0 mm 3 mps 747 mmHg 40%
    14:00 +26°C° 0 mm 3 mps 747 mmHg 38%
    15:00 +26°C° 0 mm 3 mps 747 mmHg 38%
    16:00 +26°C° 0 mm 3 mps 747 mmHg 39%
    17:00 +26°C° 0 mm 2 mps 746 mmHg 40%
    18:00 +24°C° 0 mm 2 mps 746 mmHg 48%
    19:00 +21°C° 0 mm 2 mps 746 mmHg 57%
    20:00 +21°C° 0 mm 1 mps 746 mmHg 65%
    21:00 +19°C° 0 mm 1 mps 747 mmHg 69%
    22:00 +16°C° 0 mm 1 mps 747 mmHg 72%
    23:00 +15°C° 0 mm 1 mps 747 mmHg 76%

    Day after tomorrow, 28 June, Wednesday

    Time Temperature Precipitation Wind Pressure Humidity
    00:00 +15°C° 0 mm 1 mps 747 mmHg 74%
    01:00 +15°C° 0 mm 2 mps 747 mmHg 73%
    02:00 +15°C° 0 mm 2 mps 747 mmHg 72%
    03:00 +15°C° 0 mm 2 mps 747 mmHg 73%
    04:00 +15°C° 0 mm 2 mps 747 mmHg 74%
    05:00 +15°C° 0 mm 2 mps 747 mmHg 75%
    06:00 +17°C° 0 mm 2 mps 747 mmHg 70%
    07:00 +19°C° 0 mm 3 mps 747 mmHg 66%
    08:00 +21°C° 0 mm 3 mps 746 mmHg 61%
    09:00 +22°C° 0.1 mm 3 mps 746 mmHg 60%
    10:00 +25°C° 0.1 mm 3 mps 746 mmHg 59%
    11:00 +27°C° 0.1 mm 3 mps 746 mmHg 57%
    12:00 +27°C° 0.5 mm 3 mps 745 mmHg 59%
    13:00 +28°C° 0.5 mm 3 mps 745 mmHg 60%
    14:00 +28°C° 0.5 mm 4 mps 744 mmHg 61%
    15:00 +29°C° 0.2 mm 4 mps 744 mmHg 59%
    16:00 +29°C° 0.2 mm 4 mps 744 mmHg 57%
    17:00 +30°C° 0.2 mm 4 mps 743 mmHg 55%
    18:00 +29°C° 0.1 mm 4 mps 743 mmHg 60%
    19:00 +28°C° 0.1 mm 4 mps 743 mmHg 65%
    20:00 +27°C° 0.1 mm 4 mps 742 mmHg 69%
    21:00 +25°C° 1.5 mm 4 mps 742 mmHg 77%
    22:00 +23°C° 1.5 mm 4 mps 742 mmHg 85%
    23:00 +22°C° 1.5 mm 4 mps 742 mmHg 92%

    29 June, Thursday

    Time Temperature Precipitation Wind Pressure Humidity
    00:00 +21°C° 0.5 mm 4 mps 742 mmHg 93%
    01:00 +21°C° 0.5 mm 4 mps 741 mmHg 93%
    02:00 +21°C° 0.5 mm 4 mps 741 mmHg 94%
    03:00 +21°C° 0.2 mm 4 mps 741 mmHg 94%
    04:00 +20°C° 0.2 mm 4 mps 741 mmHg 94%
    05:00 +20°C° 0.2 mm 4 mps 740 mmHg 94%
    06:00 +21°C° 0 mm 4 mps 740 mmHg 88%
    07:00 +23°C° 0 mm 4 mps 740 mmHg 82%
    08:00 +25°C° 0 mm 4 mps 740 mmHg 76%
    09:00 +27°C° 0 mm 5 mps 739 mmHg 66%
    10:00 +30°C° 0 mm 6 mps 739 mmHg 56%
    11:00 +33°C° 0 mm 6 mps 739 mmHg 46%
    12:00 +34°C° 0 mm 6 mps 738 mmHg 42%
    13:00 +35°C° 0 mm 7 mps 738 mmHg 39%
    14:00 +36°C° 0 mm 7 mps 738 mmHg 36%
    15:00 +35°C° 0.1 mm 6 mps 738 mmHg 40%
    16:00 +33°C° 0.1 mm 6 mps 738 mmHg 44%
    17:00 +32°C° 0.1 mm 6 mps 737 mmHg 48%
    18:00 +29°C° 1.1 mm 5 mps 737 mmHg 54%
    19:00 +28°C° 1.1 mm 5 mps 737 mmHg 60%
    20:00 +26°C° 1.1 mm 4 mps 737 mmHg 66%
    21:00 +25°C° 0.2 mm 4 mps 737 mmHg 68%
    22:00 +23°C° 0.2 mm 4 mps 738 mmHg 69%
    23:00 +22°C° 0.2 mm 4 mps 738 mmHg 71%

    30 June, Friday

    Time Temperature Precipitation Wind Pressure Humidity
    00:00 +22°C° 0 mm 4 mps 738 mmHg 71%
    01:00 +21°C° 0 mm 4 mps 738 mmHg 71%
    02:00 +21°C° 0 mm 4 mps 738 mmHg 71%
    03:00 +20°C° 0 mm 4 mps 738 mmHg 71%
    04:00 +20°C° 0 mm 4 mps 738 mmHg 72%
    05:00 +19°C° 0 mm 5 mps 738 mmHg 72%
    06:00 +20°C° 0 mm 5 mps 739 mmHg 70%
    07:00 +21°C° 0 mm 5 mps 739 mmHg 67%
    08:00 +22°C° 0 mm 6 mps 740 mmHg 64%
    09:00 +22°C° 0 mm 6 mps 740 mmHg 61%
    10:00 +23°C° 0 mm 6 mps 741 mmHg 57%
    11:00 +24°C° 0 mm 6 mps 741 mmHg 53%
    12:00 +26°C° 0 mm 6 mps 741 mmHg 50%
    13:00 +26°C° 0 mm 6 mps 741 mmHg 47%
    14:00 +27°C° 0 mm 6 mps 742 mmHg 43%
    15:00 +27°C° 0.1 mm 5 mps 742 mmHg 45%
    16:00 +26°C° 0.1 mm 4 mps 742 mmHg 46%
    17:00 +26°C° 0.1 mm 4 mps 742 mmHg 47%
    18:00 +25°C° 0 mm 3 mps 742 mmHg 50%
    19:00 +24°C° 0 mm 3 mps 742 mmHg 53%
    20:00 +22°C° 0 mm 3 mps 742 mmHg 57%
    21:00 +21°C° 0 mm 3 mps 742 mmHg 58%
    22:00 +20°C° 0 mm 3 mps 743 mmHg 59%
    23:00 +19°C° 0 mm 4 mps 743 mmHg 60%

    1 July, Saturday

    Time Temperature Precipitation Wind Pressure Humidity
    00:00 +19°C° 0 mm 4 mps 743 mmHg 63%
    01:00 +18°C° 0 mm 4 mps 743 mmHg 65%
    02:00 +17°C° 0 mm 3 mps 743 mmHg 68%
    03:00 +17°C° 0 mm 3 mps 744 mmHg 71%
    04:00 +16°C° 0 mm 3 mps 744 mmHg 74%
    05:00 +16°C° 0 mm 3 mps 744 mmHg 76%
    06:00 +18°C° 0 mm 4 mps 744 mmHg 70%
    07:00 +19°C° 0 mm 4 mps 744 mmHg 63%
    08:00 +21°C° 0 mm 4 mps 744 mmHg 56%
    09:00 +22°C° 0 mm 5 mps 744 mmHg 50%
    10:00 +24°C° 0 mm 6 mps 744 mmHg 43%
    11:00 +26°C° 0 mm 6 mps 744 mmHg 37%
    12:00 +27°C° 0 mm 6 mps 744 mmHg 35%
    13:00 +27°C° 0 mm 6 mps 743 mmHg 34%
    14:00 +28°C° 0 mm 6 mps 743 mmHg 32%
    15:00 +28°C° 0 mm 5 mps 743 mmHg 34%
    16:00 +27°C° 0 mm 5 mps 743 mmHg 37%
    17:00 +27°C° 0 mm 4 mps 743 mmHg 39%
    18:00 +25°C° 0 mm 3 mps 743 mmHg 45%
    19:00 +24°C° 0 mm 3 mps 743 mmHg 51%
    20:00 +21°C° 0 mm 2 mps 743 mmHg 57%
    21:00 +20°C° 0 mm 2 mps 743 mmHg 60%
    22:00 +19°C° 0 mm 2 mps 743 mmHg 64%
    23:00 +18°C° 0 mm 2 mps 743 mmHg 67%
    Show more